Change the Weather History Date:

Friday, May 23, 2014

  Actual Average Record
Temperature  
Mean Temperature 64 °F 64 °F  
Max Temperature 75 °F 74 °F 94 °F (1925)
Min Temperature 52 °F 55 °F 40 °F (2002)
Degree Days  
Heating Degree Days 1 3  
Month to date heating degree days 98 127  
Since 1 July heating degree days 5717 5230  
Cooling Degree Days 0 3  
Month to date cooling degree days 33 34  
Year to date cooling degree days 39 41  
Growing Degree Days 12 (Base 50)    
Moisture  
Dew Point 47 °F    
Average Humidity 57    
Maximum Humidity 77    
Minimum Humidity 37    
Precipitation  
Precipitation 0.00 in 0.12 in 1.41 in (1979)
Month to date precipitation 3.80 2.78  
Year to date precipitation 20.30 14.52  
Snow  
Snow 0.00 in - - ()
Month to date snowfall 0.0  
Since 1 July snowfall 44.0  
Snow Depth 0.00 in    
Sea Level Pressure  
Sea Level Pressure 29.93 in    
Wind  
Wind Speed 11 mph (NW)    
Max Wind Speed 23 mph    
Max Gust Speed 29 mph    
Visibility 10 miles    
Events      
T = Trace of Precipitation, MM = Missing Value Source: NWS Daily Summary

Daily Weather History Graph

Daily Weather History Graph

Search for Another Location

Airport or City:

Trip Planner

Search our weather history database for the weather conditions in past years. The results will help you decide how hot, cold, wet, or windy it might be!

Date:

Astronomy

May. 23, 2014 Rise Set
Actual Time 5:44 AM EDT 8:23 PM EDT
Civil Twilight 5:13 AM EDT 8:54 PM EDT
Nautical Twilight 4:33 AM EDT 9:34 PM EDT
Astronomical Twilight 3:49 AM EDT 10:18 PM EDT
Moon 2:38 AM EDT (5/23) 3:13 PM EDT (5/23)
Length of Visible Light 15h 41m
Length of Day
14h 38m
Waning Crescent, 27% of the Moon is Illuminated
May 23
Waning Crescent
May 28
New
Jun 5
First Quarter
Jun 13
Full
Jun 19
Last Quarter

Hourly Weather History & Observations

Time (EDT) Temp. Dew Point Humidity Pressure Visibility Wind Dir Wind Speed Gust Speed Precip Events Conditions
12:56 AM 62.1 °F 46.9 °F 58% 29.91 in 10.0 mi NW 10.4 mph - N/A   Partly Cloudy
1:56 AM 60.1 °F 46.9 °F 62% 29.91 in 10.0 mi NW 10.4 mph - N/A   Partly Cloudy
2:56 AM 59.0 °F 46.9 °F 64% 29.90 in 10.0 mi NW 11.5 mph - N/A   Partly Cloudy
3:56 AM 55.0 °F 46.9 °F 74% 29.89 in 10.0 mi NW 4.6 mph - N/A   Partly Cloudy
4:56 AM 53.1 °F 46.9 °F 80% 29.88 in 10.0 mi Calm Calm - N/A   Partly Cloudy
5:56 AM 54.0 °F 46.9 °F 77% 29.90 in 10.0 mi NW 3.5 mph - N/A   Partly Cloudy
6:56 AM 59.0 °F 48.9 °F 69% 29.92 in 10.0 mi WNW 3.5 mph - N/A   Clear
7:56 AM 62.1 °F 50.0 °F 65% 29.93 in 10.0 mi NW 10.4 mph - N/A   Clear
8:56 AM 63.0 °F 50.0 °F 63% 29.95 in 10.0 mi WNW 11.5 mph - N/A   Scattered Clouds
9:56 AM 66.0 °F 51.1 °F 59% 29.94 in 10.0 mi WNW 11.5 mph - N/A   Partly Cloudy
10:56 AM 69.1 °F 51.1 °F 53% 29.93 in 10.0 mi WNW 10.4 mph - N/A   Scattered Clouds
11:56 AM 72.0 °F 48.0 °F 43% 29.91 in 10.0 mi NNW 16.1 mph 26.5 mph N/A   Partly Cloudy
12:56 PM 70.0 °F 46.0 °F 42% 29.91 in 10.0 mi WNW 16.1 mph - N/A   Scattered Clouds
1:56 PM 70.0 °F 46.9 °F 44% 29.90 in 10.0 mi WNW 9.2 mph - N/A   Mostly Cloudy
2:56 PM 70.0 °F 46.0 °F 42% 29.90 in 10.0 mi WNW 17.3 mph - N/A   Mostly Cloudy
3:56 PM 71.6 °F 46.4 °F 41% 29.89 in 10.0 mi NW 15.0 mph 23.0 mph N/A   Mostly Cloudy
4:56 PM 72.0 °F 45.0 °F 38% 29.89 in 10.0 mi NW 21.9 mph 26.5 mph N/A   Scattered Clouds
5:56 PM 69.1 °F 43.0 °F 39% 29.91 in 10.0 mi NW 19.6 mph 26.5 mph N/A   Partly Cloudy
6:56 PM 66.9 °F 43.0 °F 42% 29.93 in 10.0 mi WNW 17.3 mph - N/A   Partly Cloudy
7:56 PM 66.0 °F 44.1 °F 45% 29.95 in 10.0 mi WNW 13.8 mph - N/A   Mostly Cloudy
8:56 PM 63.0 °F 45.0 °F 52% 29.98 in 10.0 mi North 5.8 mph - N/A   Partly Cloudy
9:56 PM 59.0 °F 46.9 °F 64% 30.01 in 10.0 mi NW 6.9 mph - N/A   Partly Cloudy
10:56 PM 60.1 °F 46.0 °F 60% 30.01 in 10.0 mi West 8.1 mph - N/A   Mostly Cloudy
11:56 PM 60.1 °F 46.0 °F 60% 30.02 in 10.0 mi WNW 6.9 mph - N/A   Mostly Cloudy